EW1710 Weather Reports


Display with metric or nautical units.
time (UTC)temp
F
wind
direction
speed
MPH
gust
MPH
rain 1hr
in
rain 24hr
in
rain mn
in
humidity
%
barometer
mb
20260901195115 89 239 3.0 2.0 0.00 0.00 0.00 59 1017.7
20260901194610 90 184 5.0 8.0 0.00 0.00 0.00 59 1017.7
20260901194105 90 32 3.0 3.0 0.00 0.00 0.00 57 1017.8
20260901193601 90 132 3.0 2.0 0.00 0.00 0.00 58 1017.9
20260901193055 90 43 1.0 2.0 0.00 0.00 0.00 59 1017.6
20260901192550 90 191 2.0 3.0 0.00 0.00 0.00 59 1017.6
20260901192046 90 59 3.0 5.0 0.00 0.00 0.00 57 1017.5
20260901191542 90 350 3.0 3.0 0.00 0.00 0.00 58 1017.5
20260901191038 90 351 2.0 2.0 0.00 0.00 0.00 59 1017.6
20260901190532 90 312 2.0 2.0 0.00 0.00 0.00 59 1017.6
20260901190031 90 317 2.0 2.0 0.00 0.00 0.00 58 1017.6
20260901185525 90 224 0.0 0.0 0.00 0.00 0.00 59 1017.6
20260901185024 90 338 4.0 6.0 0.00 0.00 0.00 60 1017.6
20260901184520 90 167 1.0 1.0 0.00 0.00 0.00 58 1017.5
20260901184015 89 238 2.0 2.0 0.00 0.00 0.00 58 1017.4
20260901183509 89 352 1.0 1.0 0.00 0.00 0.00 59 1017.4
20260901183005 89 333 2.0 3.0 0.00 0.00 0.00 62 1017.7
20260901182500 89 236 1.0 1.0 0.00 0.00 0.00 60 1018.0
20260901181954 89 91 2.0 2.0 0.00 0.00 0.00 63 1017.7
20260901181449 89 27 1.0 1.0 0.00 0.00 0.00 62 1017.7
20260901180948 88 56 2.0 2.0 0.00 0.00 0.00 62 1018.0
20260901180447 88 200 2.0 2.0 0.00 0.00 0.00 63 1017.9
20260901175945 88 319 3.0 5.0 0.00 0.00 0.00 63 1018.0
20260901175441 88 174 2.0 3.0 0.00 0.00 0.00 62 1017.9
20260901174936 88 72 3.0 5.0 0.00 0.00 0.00 61 1017.8
20260901174431 88 178 4.0 6.0 0.00 0.00 0.00 61 1018.1
20260901173927 88 288 5.0 6.0 0.00 0.00 0.00 65 1017.9
20260901173422 87 42 3.0 3.0 0.00 0.00 0.00 63 1018.0
20260901172918 87 319 3.0 3.0 0.00 0.00 0.00 64 1018.2
20260901172413 88 261 3.0 6.0 0.00 0.00 0.00 64 1018.0
20260901171911 88 264 3.0 5.0 0.00 0.00 0.00 66 1018.2
20260901171410 87 238 0.0 0.0 0.00 0.00 0.00 64 1018.2
20260901170908 87 333 4.0 5.0 0.00 0.00 0.00 63 1018.1
20260901170358 86 156 1.0 2.0 0.00 0.00 0.00 64 1018.5
20260901165852 87 24 4.0 6.0 0.00 0.00 0.00 63 1018.2
20260901165352 89 323 6.0 7.0 0.00 0.00 0.00 61 1018.1
20260901164848 89 4 4.0 5.0 0.00 0.00 0.00 62 1018.6
20260901164343 89 285 4.0 5.0 0.00 0.00 0.00 63 1018.5
20260901163837 88 342 2.0 3.0 0.00 0.00 0.00 63 1018.6
20260901163333 88 348 3.0 3.0 0.00 0.00 0.00 64 1018.8
20260901162828 89 268 7.0 10.0 0.00 0.00 0.00 61 1018.6
20260901162327 88 319 7.0 8.0 0.00 0.00 0.00 61 1018.5
20260901161826 87 284 3.0 3.0 0.00 0.00 0.00 64 1018.5
20260901161320 87 307 6.0 7.0 0.00 0.00 0.00 62 1018.7
20260901160816 87 340 4.0 5.0 0.00 0.00 0.00 64 1018.6
20260901160313 87 291 5.0 5.0 0.00 0.00 0.00 63 1018.7
20260901155811 87 148 1.0 2.0 0.00 0.00 0.00 63 1018.5
20260901155306 87 359 6.0 7.0 0.00 0.00 0.00 62 1018.4
20260901154803 87 14 2.0 3.0 0.00 0.00 0.00 63 1018.4
20260901154301 86 349 5.0 10.0 0.00 0.00 0.00 64 1018.2
20260901153757 86 9 4.0 5.0 0.00 0.00 0.00 63 1018.4
20260901153256 86 323 5.0 7.0 0.00 0.00 0.00 66 1018.4
20260901152755 86 287 3.0 7.0 0.00 0.00 0.00 66 1018.5
20260901152254 85 240 5.0 6.0 0.00 0.00 0.00 68 1018.5
20260901151750 86 304 5.0 6.0 0.00 0.00 0.00 66 1018.6
20260901151244 86 0 5.0 6.0 0.00 0.00 0.00 65 1018.4
20260901150743 86 352 3.0 3.0 0.00 0.00 0.00 65 1018.5
20260901150241 85 18 3.0 3.0 0.00 0.00 0.00 68 1018.4
20260901145739 83 85 2.0 2.0 0.00 0.00 0.00 71 1018.5
20260901145234 83 7 3.0 3.0 0.00 0.00 0.00 69 1018.2
20260901144730 83 322 3.0 3.0 0.00 0.00 0.00 69 1018.5
20260901144225 84 334 4.0 5.0 0.00 0.00 0.00 68 1018.5
20260901143721 84 337 5.0 6.0 0.00 0.00 0.00 67 1018.4
20260901143217 85 292 4.0 5.0 0.00 0.00 0.00 67 1018.6
20260901142713 85 3 6.0 8.0 0.00 0.00 0.00 66 1018.6
20260901142212 85 159 3.0 5.0 0.00 0.00 0.00 66 1018.6
20260901141707 84 305 6.0 8.0 0.00 0.00 0.00 67 1018.4
20260901141201 84 257 3.0 2.0 0.00 0.00 0.00 67 1018.3
20260901140700 84 316 2.0 3.0 0.00 0.00 0.00 68 1018.5
20260901140158 83 344 5.0 6.0 0.00 0.00 0.00 69 1018.3
20260901135654 83 113 1.0 1.0 0.00 0.00 0.00 70 1018.3
20260901135149 83 4 3.0 3.0 0.00 0.00 0.00 69 1018.1
20260901134644 83 226 3.0 3.0 0.00 0.00 0.00 69 1018.1
20260901134139 83 225 4.0 5.0 0.00 0.00 0.00 70 1017.9
20260901133639 82 4 2.0 2.0 0.00 0.00 0.00 72 1018.1
20260901133137 82 104 1.0 1.0 0.00 0.00 0.00 73 1018.0
20260901132631 81 72 0.0 0.0 0.00 0.00 0.00 74 1018.4
20260901132126 81 320 1.0 1.0 0.00 0.00 0.00 73 1018.3
20260901131625 81 330 3.0 3.0 0.00 0.00 0.00 74 1018.3
20260901131120 80 326 2.0 3.0 0.00 0.00 0.00 75 1018.4
20260901130616 80 266 3.0 3.0 0.00 0.00 0.00 75 1018.2
20260901130114 80 217 3.0 3.0 0.00 0.00 0.00 76 1018.3
20260901125612 79 14 1.0 2.0 0.00 0.00 0.00 77 1018.6
20260901125108 78 327 2.0 2.0 0.00 0.00 0.00 78 1018.2
20260901124607 79 350 2.0 2.0 0.00 0.00 0.00 77 1018.3
20260901124102 79 316 3.0 3.0 0.00 0.00 0.00 77 1018.3
20260901123557 78 334 3.0 3.0 0.00 0.00 0.00 78 1018.4
20260901123056 78 12 1.0 2.0 0.00 0.00 0.00 78 1018.5
20260901122555 78 346 2.0 2.0 0.00 0.00 0.00 79 1018.5
20260901122049 78 294 2.0 2.0 0.00 0.00 0.00 79 1018.5
20260901121550 78 316 0.0 0.0 0.00 0.00 0.00 79 1018.3
20260901121044 77 17 1.0 1.0 0.00 0.00 0.00 80 1018.4
20260901120539 77 21 2.0 2.0 0.00 0.00 0.00 80 1018.5
20260901120035 77 334 1.0 1.0 0.00 0.00 0.00 80 1018.7
20260901115529 77 110 0.0 0.0 0.00 0.00 0.00 80 1018.3
20260901115021 77 151 1.0 1.0 0.00 0.00 0.00 80 1018.3
20260901114517 77 150 0.0 0.0 0.00 0.00 0.00 81 1018.4
20260901114015 77 232 0.0 0.0 0.00 0.00 0.00 81 1018.5
20260901113514 77 18 2.0 2.0 0.00 0.00 0.00 80 1018.4
20260901113010 77 296 0.0 1.0 0.00 0.00 0.00 81 1018.5
20260901112504 77 347 1.0 1.0 0.00 0.00 0.00 81 1018.4
20260901111959 76 11 0.0 0.0 0.00 0.00 0.00 81 1018.2
20260901111458 76 321 1.0 2.0 0.00 0.00 0.00 81 1018.3
20260901110956 76 91 1.0 1.0 0.00 0.00 0.00 81 1018.2
20260901110452 76 339 2.0 2.0 0.00 0.00 0.00 81 1018.3
20260901105948 76 43 1.0 1.0 0.00 0.00 0.00 81 1018.2
20260901105444 76 92 0.0 0.0 0.00 0.00 0.00 81 1018.0
20260901104939 76 250 2.0 2.0 0.00 0.00 0.00 81 1017.9
20260901104435 76 151 1.0 1.0 0.00 0.00 0.00 81 1017.7
20260901103929 76 354 1.0 1.0 0.00 0.00 0.00 81 1017.9
20260901103429 76 286 0.0 0.0 0.00 0.00 0.00 81 1017.8
20260901102924 76 135 2.0 3.0 0.00 0.00 0.00 81 1017.9
20260901102419 76 343 2.0 2.0 0.00 0.00 0.00 81 1017.9
20260901101914 76 190 1.0 1.0 0.00 0.00 0.00 82 1017.7
20260901101409 76 195 5.0 8.0 0.00 0.00 0.00 82 1017.8
20260901100908 76 58 1.0 1.0 0.00 0.00 0.00 82 1017.9
20260901100403 76 269 2.0 2.0 0.00 0.00 0.00 82 1017.6
20260901095902 76 190 2.0 2.0 0.00 0.00 0.00 81 1017.6
20260901095354 76 41 1.0 2.0 0.00 0.00 0.00 82 1017.8
20260901094848 76 149 1.0 2.0 0.00 0.00 0.00 81 1017.7
20260901094343 76 152 3.0 3.0 0.00 0.00 0.00 81 1017.7
20260901093838 76 34 1.0 0.0 0.00 0.00 0.00 81 1017.8
20260901093337 76 124 0.0 0.0 0.00 0.00 0.00 81 1017.5
20260901092833 76 26 1.0 1.0 0.00 0.00 0.00 81 1017.8
20260901092328 76 283 1.0 2.0 0.00 0.00 0.00 81 1017.5
20260901091824 77 132 0.0 0.0 0.00 0.00 0.00 80 1017.6
20260901091318 77 156 1.0 1.0 0.00 0.00 0.00 80 1017.8
20260901090813 77 103 0.0 0.0 0.00 0.00 0.00 80 1017.8
20260901090308 77 2 1.0 1.0 0.00 0.00 0.00 80 1017.7
20260901085804 77 64 1.0 1.0 0.00 0.00 0.00 79 1017.7
20260901085259 77 45 1.0 1.0 0.00 0.00 0.00 79 1017.6
20260901084756 77 87 1.0 1.0 0.00 0.00 0.00 79 1017.5
20260901084251 77 123 2.0 3.0 0.00 0.00 0.00 79 1017.6
20260901083746 77 115 0.0 0.0 0.00 0.00 0.00 79 1017.7
20260901083246 77 181 2.0 3.0 0.00 0.00 0.00 79 1017.7
20260901082744 77 120 1.0 2.0 0.00 0.00 0.00 79 1017.9
20260901082239 77 2 1.0 2.0 0.00 0.00 0.00 79 1017.7
20260901081735 77 298 3.0 6.0 0.00 0.00 0.00 79 1017.5
20260901081235 76 171 1.0 2.0 0.00 0.00 0.00 80 1017.7
20260901080730 76 160 1.0 1.0 0.00 0.00 0.00 80 1017.7
20260901080228 76 176 0.0 0.0 0.00 0.00 0.00 80 1017.6
20260901075722 76 160 1.0 1.0 0.00 0.00 0.00 80 1017.8
20260901075217 76 114 1.0 1.0 0.00 0.00 0.00 80 1017.7
20260901074712 76 132 1.0 1.0 0.00 0.00 0.00 80 1018.0
20260901074208 76 148 1.0 1.0 0.00 0.00 0.00 80 1017.9
20260901073703 76 135 0.0 0.0 0.00 0.00 0.00 80 1017.9
20260901073158 76 79 0.0 0.0 0.00 0.00 0.00 80 1017.9
20260901072653 76 177 2.0 2.0 0.00 0.00 0.00 80 1017.9
20260901072148 76 102 0.0 0.0 0.00 0.00 0.00 80 1018.0
20260901071643 76 165 0.0 1.0 0.00 0.00 0.00 80 1018.0
20260901071142 76 149 0.0 0.0 0.00 0.00 0.00 80 1017.9
20260901070631 76 90 1.0 1.0 0.00 0.00 0.00 80 1017.8
20260901070127 76 154 0.0 0.0 0.00 0.00 0.00 79 1017.9
20260901065620 76 188 1.0 1.0 0.00 0.00 0.00 79 1018.0
20260901065115 76 208 1.0 1.0 0.00 0.00 0.00 79 1017.9
20260901064612 76 108 1.0 2.0 0.00 0.00 0.00 79 1018.0
20260901064108 76 139 1.0 1.0 0.00 0.00 0.00 79 1017.8
20260901063605 76 153 0.0 0.0 0.00 0.00 0.00 80 1017.9
20260901063100 76 124 0.0 0.0 0.00 0.00 0.00 80 1018.2
20260901062550 76 127 1.0 1.0 0.00 0.00 0.00 79 1018.4
20260901062046 76 193 1.0 1.0 0.00 0.00 0.00 79 1018.1
20260901061543 77 337 2.0 2.0 0.00 0.00 0.00 79 1018.1
20260901061043 77 144 2.0 2.0 0.00 0.00 0.00 78 1018.0
20260901060537 77 157 1.0 2.0 0.00 0.00 0.00 78 1018.1
20260901060032 77 191 2.0 2.0 0.00 0.00 0.00 78 1018.5
20260901055527 77 120 1.0 1.0 0.00 0.00 0.00 78 1018.4
20260901055024 77 91 0.0 0.0 0.00 0.00 0.00 79 1018.3
20260901054521 77 115 0.0 0.0 0.00 0.00 0.00 79 1018.1
20260901054017 77 159 1.0 1.0 0.00 0.00 0.00 79 1018.1
20260901053512 76 163 0.0 1.0 0.00 0.00 0.00 79 1018.4
20260901053009 76 160 1.0 1.0 0.00 0.00 0.00 79 1018.6
20260901052504 76 101 0.0 0.0 0.00 0.00 0.00 79 1018.6
20260901052003 76 138 1.0 1.0 0.00 0.00 0.00 80 1018.5
20260901051458 77 162 1.0 1.0 0.00 0.00 0.00 79 1018.5
20260901050957 77 152 0.0 0.0 0.00 0.00 0.00 79 1018.4
20260901050452 77 47 0.0 0.0 0.00 0.00 0.00 79 1018.6
20260901045946 76 56 1.0 1.0 0.00 0.00 0.00 79 1018.4
20260901045442 76 114 0.0 0.0 0.00 0.00 0.00 80 1018.5
20260901044937 75 161 0.0 0.0 0.00 0.00 0.00 82 1018.7
20260901044432 74 195 3.0 2.0 0.00 0.00 0.00 84 1018.5
20260901043928 74 138 0.0 0.0 0.00 0.00 0.00 87 1018.5
20260901043424 73 137 0.0 1.0 0.00 0.00 0.00 88 1018.3
20260901042918 73 163 0.0 0.0 0.00 0.00 0.00 90 1018.6
20260901042413 73 163 0.0 0.0 0.00 0.00 0.00 92 1018.2
20260901041908 72 151 0.0 0.0 0.00 0.00 0.00 94 1018.3
20260901041403 72 151 0.0 0.0 0.00 0.00 0.00 95 1018.5
20260901040902 72 151 0.0 0.0 0.00 0.00 0.00 95 1018.3
20260901040401 71 151 1.0 1.0 0.00 0.00 0.00 95 1018.5
20260901035856 71 150 0.0 0.0 0.00 0.00 0.00 95 1018.5
20260901035354 71 150 0.0 0.0 0.00 0.00 0.00 95 1018.7
20260901034853 71 150 0.0 0.0 0.00 0.00 0.00 95 1018.6
20260901034348 71 150 0.0 0.0 0.00 0.00 0.00 95 1018.7
20260901033843 71 150 0.0 0.0 0.00 0.00 0.00 95 1018.7
20260901033342 71 150 0.0 0.0 0.00 0.00 0.00 95 1018.7
20260901032841 71 149 0.0 0.0 0.00 0.00 0.00 95 1018.6
20260901032341 71 150 1.0 1.0 0.00 0.00 0.00 95 1018.7
20260901031836 71 149 0.0 0.0 0.00 0.00 0.00 95 1018.5
20260901031332 71 165 0.0 0.0 0.00 0.00 0.00 95 1018.4
20260901030831 71 165 0.0 0.0 0.00 0.00 0.00 95 1018.5
20260901030327 71 166 0.0 0.0 0.00 0.00 0.00 95 1018.6
20260901025825 71 166 0.0 0.0 0.00 0.00 0.00 94 1018.6
20260901025320 71 166 0.0 0.0 0.00 0.00 0.00 94 1018.6
20260901024810 71 166 0.0 0.0 0.00 0.00 0.00 94 1018.3
20260901024308 71 166 0.0 0.0 0.00 0.00 0.00 94 1018.4
20260901023806 71 166 0.0 0.0 0.00 0.00 0.00 94 1018.3
20260901023256 72 166 0.0 0.0 0.00 0.00 0.00 94 1018.4
20260901022752 72 194 0.0 0.0 0.00 0.00 0.00 94 1018.3
20260901022248 72 196 0.0 0.0 0.00 0.00 0.00 94 1018.5
20260901021742 72 196 0.0 0.0 0.00 0.00 0.00 93 1018.5
20260901021238 72 191 1.0 1.0 0.00 0.00 0.00 93 1018.7
20260901020733 72 167 0.0 0.0 0.00 0.00 0.00 92 1018.5
20260901020228 73 168 0.0 0.0 0.00 0.00 0.00 92 1018.5
20260901015723 73 167 0.0 0.0 0.00 0.00 0.00 92 1018.8
20260901015219 73 167 0.0 0.0 0.00 0.00 0.00 91 1018.9
20260901014718 73 167 0.0 0.0 0.00 0.00 0.00 90 1019.0
20260901014214 74 167 0.0 0.0 0.00 0.00 0.00 90 1018.8
20260901013710 74 167 0.0 0.0 0.00 0.00 0.00 90 1018.7
20260901013206 74 169 0.0 0.0 0.00 0.00 0.00 89 1018.6
20260901012701 75 156 0.0 0.0 0.00 0.00 0.00 88 1018.7
20260901012156 75 156 0.0 0.0 0.00 0.00 0.00 87 1018.7
20260901011651 75 156 0.0 0.0 0.00 0.00 0.00 86 1018.6
20260901011150 76 157 1.0 1.0 0.00 0.00 0.00 85 1018.5
20260901010645 77 140 0.0 0.0 0.00 0.00 0.00 83 1018.3
20260901010145 77 140 0.0 0.0 0.00 0.00 0.00 82 1018.0
20260901005644 78 140 0.0 0.0 0.00 0.00 0.00 80 1018.1
20260901005139 78 140 0.0 0.0 0.00 0.00 0.00 77 1017.9
20260901004638 79 105 0.0 0.0 0.00 0.00 0.00 75 1018.1
20260901004133 79 115 0.0 0.0 0.00 0.00 0.00 73 1018.1
20260901003628 79 174 2.0 2.0 0.00 0.00 0.00 73 1018.2
20260901003127 79 148 0.0 1.0 0.00 0.00 0.00 73 1018.3
20260901002622 80 35 1.0 2.0 0.00 0.00 0.00 73 1018.6
20260901002116 80 28 2.0 2.0 0.00 0.00 0.00 73 1018.5
20260901001612 79 259 2.0 2.0 0.00 0.00 0.00 73 1018.5
20260901001107 79 166 0.0 1.0 0.00 0.00 0.00 74 1018.5
20260901000602 79 116 2.0 1.0 0.00 0.00 0.00 75 1018.9
20260901000057 78 76 1.0 1.0 0.00 0.00 0.00 75 1018.8
20260831235550 78 165 0.0 0.0 0.00 0.00 0.00 77 1018.9
20260831235046 77 71 0.0 0.0 0.00 0.00 0.00 78 1018.6
20260831234540 77 179 1.0 1.0 0.00 0.00 0.00 82 1018.8
20260831234037 77 180 1.0 1.0 0.00 0.00 0.00 82 1019.0
20260831233536 78 180 0.0 0.0 0.00 0.00 0.00 83 1018.9
20260831233033 78 180 0.0 0.0 0.00 0.00 0.00 82 1018.9
20260831232527 78 180 0.0 0.0 0.00 0.00 0.00 81 1018.9
20260831232023 78 180 0.0 0.0 0.00 0.00 0.00 81 1019.0
20260831231520 79 181 0.0 0.0 0.00 0.00 0.00 80 1018.9
20260831231015 79 182 1.0 1.0 0.00 0.00 0.00 79 1019.2
20260831230510 80 325 0.0 0.0 0.00 0.00 0.00 79 1019.1
20260831230005 80 328 1.0 1.0 0.00 0.00 0.00 76 1019.1
20260831225501 81 335 0.0 0.0 0.00 0.00 0.00 76 1018.9
20260831225000 82 336 0.0 0.0 0.00 0.00 0.00 74 1019.3
20260831224455 82 336 0.0 0.0 0.00 0.00 0.00 74 1019.2
20260831223950 82 336 0.0 0.0 0.00 0.00 0.00 71 1019.2
20260831223445 83 319 0.0 0.0 0.00 0.00 0.00 68 1019.3
20260831222941 84 316 2.0 1.0 0.00 0.00 0.00 67 1019.0
20260831222437 84 352 2.0 3.0 0.00 0.00 0.00 61 1019.1
20260831221932 86 192 1.0 1.0 0.00 0.00 0.00 65 1019.1
20260831221428 86 120 0.0 0.0 0.00 0.00 0.00 64 1019.2
20260831220923 86 136 0.0 0.0 0.00 0.00 0.00 57 1019.2
20260831220418 85 334 2.0 2.0 0.00 0.00 0.00 58 1019.3
20260831215913 85 340 1.0 1.0 0.00 0.00 0.00 60 1019.2
20260831215409 85 122 0.0 0.0 0.00 0.00 0.00 62 1019.0
20260831214905 85 334 1.0 1.0 0.00 0.00 0.00 60 1019.0
20260831214403 85 301 1.0 1.0 0.00 0.00 0.00 60 1019.2
20260831213858 86 297 1.0 1.0 0.00 0.00 0.00 58 1018.9
20260831213354 85 32 1.0 1.0 0.00 0.00 0.00 57 1019.1
20260831212849 85 46 1.0 1.0 0.00 0.00 0.00 59 1019.2
20260831212346 85 356 1.0 1.0 0.00 0.00 0.00 60 1019.0
20260831211844 84 201 1.0 1.0 0.00 0.00 0.00 58 1019.0
20260831211339 85 323 1.0 1.0 0.00 0.00 0.00 58 1019.2
20260831210838 85 44 3.0 3.0 0.00 0.00 0.00 59 1019.4
20260831210335 85 349 0.0 0.0 0.00 0.00 0.00 61 1019.6
20260831205829 86 316 1.0 1.0 0.00 0.00 0.00 58 1019.4
20260831205325 86 307 2.0 2.0 0.00 0.00 0.00 58 1019.4
20260831204820 86 16 2.0 2.0 0.00 0.00 0.00 59 1019.2
20260831204319 87 309 4.0 5.0 0.00 0.00 0.00 56 1019.3
20260831203818 87 235 2.0 2.0 0.00 0.00 0.00 57 1019.4
20260831203313 87 239 2.0 2.0 0.00 0.00 0.00 58 1019.2
20260831202811 86 327 2.0 1.0 0.00 0.00 0.00 55 1019.0
20260831202306 86 299 2.0 2.0 0.00 0.00 0.00 57 1019.0
20260831201800 85 356 1.0 1.0 0.00 0.00 0.00 60 1019.1
20260831201259 85 340 2.0 2.0 0.00 0.00 0.00 60 1019.3
20260831200755 85 317 1.0 1.0 0.00 0.00 0.00 61 1019.4
20260831200250 84 296 2.0 2.0 0.00 0.00 0.00 59 1019.2
20260831195745 84 327 0.0 0.0 0.00 0.00 0.00 61 1019.4
20260831195241 84 21 1.0 1.0 0.00 0.00 0.00 61 1018.9